Location: Colorado Springs
(38.8340°N, 104.8210°W)
Time: 22:05:28
(UTC-06:00)

N. Korean satellite - Pass Details

Date: 09 October 2017
Orbit: 459 x 517 km, 97.2° (Epoch: 17 October)

Event Time Altitude Azimuth Distance (km) Brightness Sun altitude
Rises 19:19:35 0° 178° (S) 2,574 10.2 -10.6°
Reaches altitude 10° 19:21:43 10° 183° (S) 1,686 9.3 -11.0°
Maximum altitude 19:25:15 51° 260° (W) 619 7.5 -11.7°
Drops below altitude 10° 19:28:45 10° 338° (NNW) 1,667 9.6 -12.4°
Sets 19:30:51 0° 343° (NNW) 2,541 10.5 -12.8°
